Weather History for Cavalier, ND

Change the Weather History Date:

Saturday, October 6, 2012

  Actual Average (KGAF) Record (KGAF)
Temperature  
Mean Temperature 37 °F -  
Max Temperature 46 °F 60 °F 83 °F (1961)
Min Temperature 28 °F 35 °F 20 °F (1953)
Degree Days  
Heating Degree Days 28    
Moisture  
Dew Point 29 °F    
Average Humidity 76    
Maximum Humidity 100    
Minimum Humidity 46    
Precipitation  
Precipitation 0.00 in - - ()
Sea Level Pressure  
Sea Level Pressure 30.27 in    
Wind  
Wind Speed 8 mph (West)    
Max Wind Speed 15 mph    
Max Gust Speed 18 mph    
Visibility 10 miles    
Events      
Averages and records for this station are not official NWS values.
T = Trace of Precipitation, MM = Missing Value Source: NWS Daily Summary

Daily Weather History Graph

Daily Weather History Graph

Search for Another Location

Airport:

Trip Planner

Search our weather history database for the weather conditions in past years. The results will help you decide how hot, cold, wet, or windy it might be!

Date:

Astronomy

Oct. 06, 2012 Rise Set
Actual Time 7:38 AM CDT 6:57 PM CDT
Civil Twilight 7:06 AM CDT 7:29 PM CDT
Nautical Twilight 6:30 AM CDT 8:05 PM CDT
Astronomical Twilight 5:53 AM CDT 8:42 PM CDT
Moon 10:52 PM CDT (10/6) 1:56 PM CDT (10/6)
Length of Visible Light 12h 22m
Length of Day
11h 19m
Waning Gibbous, 65% of the Moon is Illuminated
Oct 6
Waning Gibbous
Oct 8
Last Quarter
Oct 15
New
Oct 21
First Quarter
Oct 29
Full

Hourly Weather History & Observations

Time (CDT) Temp. Windchill Dew Point Humidity Pressure Visibility Wind Dir Wind Speed Gust Speed Precip Events Conditions
12:15 AM 33.8 °F 26.4 °F 32.0 °F 93% 30.34 in 10.0 mi NNW 9.2 mph - N/A   Overcast
12:35 AM 33.8 °F 25.8 °F 32.0 °F 93% 30.34 in 10.0 mi NNW 10.4 mph - N/A   Overcast
12:55 AM 35.6 °F 27.5 °F 32.0 °F 87% 30.34 in 10.0 mi NNW 11.5 mph - N/A   Overcast
1:15 AM 33.8 °F 27.0 °F 32.0 °F 93% 30.34 in 10.0 mi NNW 8.1 mph - N/A   Mostly Cloudy
1:35 AM 33.8 °F 28.6 °F 32.0 °F 93% 30.34 in 10.0 mi NNW 5.8 mph - N/A   Mostly Cloudy
1:55 AM 33.8 °F 28.6 °F 32.0 °F 93% 30.34 in 10.0 mi NNW 5.8 mph - N/A   Mostly Cloudy
2:15 AM 33.8 °F 28.6 °F 32.0 °F 93% 30.35 in 10.0 mi North 5.8 mph - N/A   Overcast
2:35 AM 33.8 °F 29.6 °F 32.0 °F 93% 30.35 in 10.0 mi NNW 4.6 mph - N/A   Overcast
2:55 AM 32.0 °F 27.5 °F 32.0 °F 100% 30.35 in 10.0 mi NNW 4.6 mph - N/A   Scattered Clouds
3:15 AM 32.0 °F 28.7 °F 32.0 °F 100% 30.35 in 10.0 mi NNW 3.5 mph - N/A   Clear
3:35 AM 32.0 °F 28.7 °F 32.0 °F 100% 30.34 in 10.0 mi West 3.5 mph - N/A   Clear
3:55 AM 32.0 °F - 32.0 °F 100% 30.35 in 10.0 mi Calm Calm - N/A   Clear
4:15 AM 32.0 °F 28.7 °F 32.0 °F 100% 30.35 in 10.0 mi West 3.5 mph - N/A   Clear
4:35 AM 32.0 °F - 32.0 °F 100% 30.34 in 10.0 mi Calm Calm - N/A   Clear
4:55 AM 30.2 °F - 30.2 °F 100% 30.34 in 10.0 mi Calm Calm - N/A   Clear
5:15 AM 30.2 °F 25.4 °F 30.2 °F 100% 30.34 in 10.0 mi West 4.6 mph - N/A   Clear
5:35 AM 30.2 °F 26.7 °F 28.4 °F 93% 30.34 in 10.0 mi WNW 3.5 mph - N/A   Clear
5:55 AM 28.4 °F 23.3 °F 28.4 °F 100% 30.34 in 10.0 mi West 4.6 mph - N/A   Clear
6:15 AM 28.4 °F 23.3 °F 28.4 °F 100% 30.34 in 10.0 mi West 4.6 mph - N/A   Clear
6:35 AM 28.4 °F 21.2 °F 28.4 °F 100% 30.34 in 10.0 mi West 6.9 mph - N/A   Clear
6:55 AM 28.4 °F 20.4 °F 26.6 °F 93% 30.34 in 10.0 mi West 8.1 mph - N/A   Clear
7:15 AM 28.4 °F 21.2 °F 26.6 °F 93% 30.35 in 10.0 mi West 6.9 mph - N/A   Clear
7:35 AM 28.4 °F 21.2 °F 26.6 °F 93% 30.35 in 10.0 mi West 6.9 mph - N/A   Clear
7:55 AM 28.4 °F 21.2 °F 26.6 °F 93% 30.35 in 10.0 mi West 6.9 mph - N/A   Clear
8:15 AM 28.4 °F 20.4 °F 26.6 °F 93% 30.35 in 10.0 mi West 8.1 mph - N/A   Clear
8:35 AM 28.4 °F 20.4 °F 26.6 °F 93% 30.35 in 10.0 mi West 8.1 mph - N/A   Clear
9:15 AM 32.0 °F 28.7 °F 28.4 °F 87% 30.35 in 10.0 mi West 3.5 mph - N/A   Clear
9:35 AM 32.0 °F 25.6 °F 28.4 °F 87% 30.36 in 10.0 mi West 6.9 mph - N/A   Clear
9:55 AM 32.0 °F 25.6 °F 28.4 °F 87% 30.35 in 10.0 mi West 6.9 mph - N/A   Clear
10:15 AM 35.6 °F 28.6 °F 30.2 °F 81% 30.35 in 10.0 mi WNW 9.2 mph - N/A   Clear
10:35 AM 37.4 °F 32.1 °F 32.0 °F 81% 30.35 in 10.0 mi West 6.9 mph - N/A   Clear
10:55 AM 37.4 °F 29.8 °F 30.2 °F 75% 30.36 in 10.0 mi WNW 11.5 mph - N/A   Clear
11:15 AM 39.2 °F 32.0 °F 30.2 °F 70% 30.35 in 10.0 mi WNW 11.5 mph - N/A   Clear
11:35 AM 39.2 °F 32.5 °F 30.2 °F 70% 30.35 in 10.0 mi WNW 10.4 mph - N/A   Clear
11:55 AM 41.0 °F 34.7 °F 30.2 °F 65% 30.35 in 10.0 mi West 10.4 mph - N/A   Clear
12:15 PM 41.0 °F 33.1 °F 30.2 °F 65% 30.34 in 10.0 mi West 15.0 mph - N/A   Clear
12:35 PM 41.0 °F 33.1 °F 28.4 °F 61% 30.33 in 10.0 mi NW 15.0 mph - N/A   Clear
12:55 PM 41.0 °F 34.3 °F 28.4 °F 61% 30.33 in 10.0 mi WNW 11.5 mph 16.1 mph N/A   Clear
1:15 PM 42.8 °F 36.6 °F 28.4 °F 57% 30.32 in 10.0 mi West 11.5 mph 18.4 mph N/A   Clear
1:35 PM 44.6 °F 39.2 °F 28.4 °F 53% 30.30 in 10.0 mi WNW 10.4 mph - N/A   Clear
1:55 PM 44.6 °F 39.7 °F 26.6 °F 49% 30.29 in 10.0 mi West 9.2 mph - N/A   Clear
2:15 PM 44.6 °F 38.4 °F 26.6 °F 49% 30.28 in 10.0 mi NW 12.7 mph 17.3 mph N/A   Clear
2:35 PM 44.6 °F 39.7 °F 30.2 °F 57% 30.27 in 10.0 mi West 9.2 mph 16.1 mph N/A   Clear
2:55 PM 44.6 °F 39.2 °F 30.2 °F 57% 30.26 in 10.0 mi West 10.4 mph - N/A   Clear
3:15 PM 44.6 °F 38.4 °F 28.4 °F 53% 30.26 in 10.0 mi West 12.7 mph 17.3 mph N/A   Clear
3:35 PM 44.6 °F 39.7 °F 28.4 °F 53% 30.24 in 10.0 mi WSW 9.2 mph - N/A   Clear
3:55 PM 46.4 °F 41.9 °F 32.0 °F 57% 30.23 in 10.0 mi West 9.2 mph 18.4 mph N/A   Clear
4:15 PM 46.4 °F 42.4 °F 28.4 °F 50% 30.22 in 10.0 mi West 8.1 mph - N/A   Clear
4:35 PM 46.4 °F 41.5 °F 28.4 °F 50% 30.21 in 10.0 mi West 10.4 mph 16.1 mph N/A   Clear
4:55 PM 46.4 °F 40.4 °F 26.6 °F 46% 30.20 in 10.0 mi WSW 13.8 mph 17.3 mph N/A   Clear
5:15 PM 44.6 °F 38.4 °F 24.8 °F 46% 30.20 in 10.0 mi WSW 12.7 mph 18.4 mph N/A   Clear
5:35 PM 46.4 °F 41.9 °F 26.6 °F 46% 30.19 in 10.0 mi WSW 9.2 mph - N/A   Clear
6:15 PM 44.6 °F 39.7 °F 26.6 °F 49% 30.18 in 10.0 mi WSW 9.2 mph - N/A   Clear
6:35 PM 42.8 °F 38.0 °F 26.6 °F 53% 30.17 in 10.0 mi WSW 8.1 mph - N/A   Clear
6:55 PM 41.0 °F 37.1 °F 26.6 °F 57% 30.17 in 10.0 mi SW 5.8 mph - N/A   Clear
7:15 PM 41.0 °F 37.1 °F 26.6 °F 57% 30.16 in 10.0 mi SW 5.8 mph - N/A   Clear
7:35 PM 39.2 °F 35.9 °F 28.4 °F 65% 30.16 in 10.0 mi SW 4.6 mph - N/A   Clear
7:55 PM 39.2 °F 35.0 °F 28.4 °F 65% 30.16 in 10.0 mi SW 5.8 mph - N/A   Clear
8:15 PM 37.4 °F 32.8 °F 28.4 °F 70% 30.15 in 10.0 mi SSW 5.8 mph - N/A   Clear
8:35 PM 37.4 °F 32.8 °F 28.4 °F 70% 30.14 in 10.0 mi SSW 5.8 mph - N/A   Clear
8:55 PM 37.4 °F 32.1 °F 28.4 °F 70% 30.14 in 10.0 mi SW 6.9 mph - N/A   Clear
9:15 PM 37.4 °F 32.1 °F 28.4 °F 70% 30.13 in 10.0 mi SW 6.9 mph - N/A   Clear
9:35 PM 35.6 °F 29.9 °F 28.4 °F 75% 30.12 in 10.0 mi SSW 6.9 mph - N/A   Clear
9:55 PM 35.6 °F 29.2 °F 28.4 °F 75% 30.11 in 10.0 mi SW 8.1 mph - N/A   Clear
10:15 PM 33.8 °F 27.7 °F 28.4 °F 81% 30.10 in 10.0 mi SSW 6.9 mph - N/A   Clear
10:35 PM 32.0 °F 25.6 °F 28.4 °F 87% 30.10 in 10.0 mi SSW 6.9 mph - N/A   Clear
10:55 PM 32.0 °F 25.6 °F 26.6 °F 80% 30.09 in 10.0 mi SW 6.9 mph - N/A   Clear
11:35 PM 33.8 °F 27.7 °F 26.6 °F 75% 30.07 in 10.0 mi SW 6.9 mph - N/A   Clear
11:55 PM 33.8 °F 27.7 °F 24.8 °F 70% 30.06 in 10.0 mi SW 6.9 mph - N/A   Clear